Tehran, Iran

7:57 PM +0330 on October 19, 2017 (GMT +0330)
Mehrabad International

Weather History for OIII - April, 2017

Change the Weather History Date:

Friday, April 21, 2017

  Actual Average Record
Temperature  
Mean Temperature 66 °F -  
Max Temperature 76 °F 77 °F 84 °F (2005)
Min Temperature 57 °F 59 °F 48 °F (2004)
Cooling Degree Days 2    
Growing Degree Days 16 (Base 50)    
Moisture  
Dew Point 26 °F    
Average Humidity 21    
Maximum Humidity 44    
Minimum Humidity 7    
Precipitation  
Precipitation 0.00 in 0.02 in - ()
Sea Level Pressure  
Sea Level Pressure 30.02 in    
Wind  
Wind Speed 6 mph ()    
Max Wind Speed 18 mph    
Max Gust Speed -    
Visibility 6.2 miles    
Events      
Averages and records for this station are not official NWS values.
T = Trace of Precipitation, MM = Missing Value Source: Averaged Metar Reports

Daily Weather History Graph

Daily Weather History Graph

Search for Another Location

Airport or City:

Trip Planner

Search our weather history database for the weather conditions in past years. The results will help you decide how hot, cold, wet, or windy it might be!

Date:

Astronomy

Apr. 21, 2017 Rise Set
Actual Time 6:24 AM +0430 7:42 PM +0430
Civil Twilight 5:57 AM +0430 8:09 PM +0430
Nautical Twilight 5:25 AM +0430 8:41 PM +0430
Astronomical Twilight 4:52 AM +0430 9:14 PM +0430
Moon 3:13 AM +0430 (4/21) 2:14 PM +0430 (4/21)
Length of Visible Light 14h 11m
Length of Day
13h 18m
Waning Crescent, 31% of the Moon is Illuminated
Apr 21
Waning Crescent
Apr 26
New
May 3
First Quarter
May 11
Full
May 19
Last Quarter

Hourly Weather History & Observations

Time (+0430) Temp. Dew Point Humidity Pressure Visibility Wind Dir Wind Speed Gust Speed Precip Events Conditions
12:00 AM 62.6 °F 23.0 °F 22% 30.01 in - Calm Calm - N/A   Clear
12:30 AM 64.4 °F 17.6 °F 16% 30.01 in - North 4.6 mph - N/A   Clear
1:00 AM 64.4 °F 19.4 °F 18% 30.01 in 6.2 mi Calm Calm - N/A   Scattered Clouds
1:30 AM 64 °F 20 °F 10% 29.84 in 7 mi NNW 4.5 mph - -   Scattered Clouds
1:30 AM 64.4 °F 21.2 °F 19% 30.01 in 6.2 mi NNW 4.6 mph - N/A   Scattered Clouds
2:00 AM 64.4 °F 17.6 °F 16% 30.01 in 6.2 mi West 6.9 mph - N/A   Scattered Clouds
2:30 AM 62.6 °F 23.0 °F 22% 30.01 in 6.2 mi WNW 4.6 mph - N/A   Scattered Clouds
3:00 AM 62.6 °F 24.8 °F 24% 30.01 in 6.2 mi NNW 4.6 mph - N/A   Scattered Clouds
3:30 AM 60.8 °F 24.8 °F 25% 30.01 in 6.2 mi Calm Calm - N/A   Scattered Clouds
4:00 AM 62.6 °F 26.6 °F 26% 30.01 in 6.2 mi SE 6.9 mph - N/A   Scattered Clouds
4:30 AM 58 °F 33 °F 27% 29.86 in 6 mi ESE 6.7 mph - -   Scattered Clouds
4:30 AM 59.0 °F 33.8 °F 39% 30.04 in 6.2 mi ESE 6.9 mph - N/A   Scattered Clouds
5:00 AM 59.0 °F 33.8 °F 39% 30.04 in 6.2 mi ESE 9.2 mph - N/A   Scattered Clouds
5:30 AM 57.2 °F 35.6 °F 44% 30.04 in 6.2 mi ESE 6.9 mph - N/A   Scattered Clouds
6:00 AM 59.0 °F 33.8 °F 39% 30.04 in 6.2 mi ESE 6.9 mph - N/A   Scattered Clouds
6:30 AM 59.0 °F 33.8 °F 39% 30.04 in 6.2 mi East 4.6 mph - N/A   Partly Cloudy
7:00 AM 59.0 °F 33.8 °F 39% 30.06 in 6.2 mi East 4.6 mph - N/A   Partly Cloudy
7:30 AM 62 °F 32 °F 21% 29.88 in 6 mi East 4.5 mph - -  
7:30 AM 60.8 °F 32.0 °F 34% 30.06 in - North 4.6 mph - N/A   Clear
8:00 AM 64.4 °F 30.2 °F 28% 30.06 in - North 8.1 mph - N/A   Clear
8:30 AM 64.4 °F 28.4 °F 26% 30.06 in - East 9.2 mph - N/A   Clear
9:00 AM 66.2 °F 26.6 °F 23% 30.09 in - East 9.2 mph - N/A   Clear
9:30 AM 66.2 °F 26.6 °F 23% 30.09 in - East 9.2 mph - N/A   Clear
10:00 AM 66.2 °F 32.0 °F 28% 30.09 in - South 9.2 mph - N/A   Clear
10:30 AM 66 °F 29 °F 15% 29.93 in 6 mi SE 4.5 mph - -   Scattered Clouds
10:30 AM 66.2 °F 30.2 °F 26% 30.09 in 6.2 mi SE 6.9 mph - N/A   Partly Cloudy
11:00 AM 68.0 °F 30.2 °F 24% 30.09 in 6.2 mi SE 6.9 mph - N/A   Partly Cloudy
11:30 AM 68.0 °F 26.6 °F 21% 30.09 in 6.2 mi SE 6.9 mph - N/A   Partly Cloudy
12:00 PM 69.8 °F 26.6 °F 20% 30.09 in 6.2 mi SE 6.9 mph - N/A   Partly Cloudy
12:30 PM 69.8 °F 26.6 °F 20% 30.09 in 6.2 mi SE 6.9 mph - N/A   Partly Cloudy
1:00 PM 71.6 °F 26.6 °F 19% 30.06 in 6.2 mi SE 6.9 mph - N/A   Partly Cloudy
1:30 PM 73 °F 26 °F 9% 29.88 in 6 mi South 8.9 mph - -   Scattered Clouds
1:30 PM 73.4 °F 26.6 °F 18% 30.04 in 6.2 mi South 9.2 mph - N/A   Partly Cloudy
1:55 PM 73.4 °F 24.8 °F 16% 30.04 in 6.2 mi West 16.1 mph - N/A   Partly Cloudy
2:00 PM 73.4 °F 24.8 °F 16% 30.04 in 6.2 mi West 16.1 mph - N/A   Partly Cloudy
2:27 PM 73.4 °F 26.6 °F 18% 30.04 in 6.2 mi WSW 9.2 mph - N/A   Partly Cloudy
2:30 PM 73.4 °F 26.6 °F 18% 30.04 in 6.2 mi WSW 9.2 mph - N/A   Partly Cloudy
2:52 PM 73.4 °F 26.6 °F 18% 30.04 in 6.2 mi SW 6.9 mph - N/A   Partly Cloudy
3:00 PM 73.4 °F 26.6 °F 18% 30.04 in 6.2 mi SW 6.9 mph - N/A   Partly Cloudy
3:23 PM 73.4 °F 23.0 °F 15% 30.01 in 6.2 mi WSW 9.2 mph - N/A   Partly Cloudy
3:30 PM 73.4 °F 23.0 °F 15% 30.01 in 6.2 mi WSW 9.2 mph - N/A   Partly Cloudy
3:55 PM 75.2 °F 23.0 °F 14% 30.01 in 6.2 mi WNW 13.8 mph - N/A   Partly Cloudy
4:00 PM 75.2 °F 23.0 °F 14% 30.01 in 6.2 mi WNW 13.8 mph - N/A   Partly Cloudy
4:30 PM 75 °F 23 °F 7% 29.83 in 6 mi South 8.9 mph - -   Scattered Clouds
4:30 PM 75.2 °F 23.0 °F 14% 30.01 in 6.2 mi South 9.2 mph - N/A   Partly Cloudy
5:00 PM 75.2 °F 23.0 °F 14% 30.01 in 6.2 mi WSW 9.2 mph - N/A   Partly Cloudy
5:30 PM 75.2 °F 23.0 °F 14% 30.01 in 6.2 mi WSW 12.7 mph - N/A   Partly Cloudy
6:00 PM 75.2 °F 23.0 °F 14% 30.01 in 6.2 mi WSW 12.7 mph - N/A   Partly Cloudy
6:30 PM 75.2 °F 24.8 °F 15% 30.01 in 6.2 mi WSW 18.4 mph - N/A   Partly Cloudy
7:00 PM 73.4 °F 24.8 °F 16% 30.01 in 6.2 mi WSW 13.8 mph - N/A   Partly Cloudy
7:30 PM 73 °F 21 °F 7% 29.85 in 6 mi West 15.7 mph - -  
7:30 PM 73.4 °F 21.2 °F 14% 30.01 in - West 16.1 mph - N/A   Clear
8:00 PM 71.6 °F 21.2 °F 15% 30.01 in - West 11.5 mph - N/A   Clear
8:30 PM 71.6 °F 21.2 °F 15% 30.04 in - West 11.5 mph - N/A   Clear
9:00 PM 69.8 °F 23.0 °F 17% 30.04 in - NW 6.9 mph - N/A   Clear
9:30 PM 69.8 °F 24.8 °F 18% 30.04 in - NNW 6.9 mph - N/A   Clear
10:00 PM 68.0 °F 24.8 °F 20% 30.04 in - NNW 9.2 mph - N/A   Clear
10:30 PM 68 °F 25 °F 10% 29.88 in 6 mi NNW 6.7 mph - -  
10:30 PM 68.0 °F 24.8 °F 20% 30.06 in - NNW 6.9 mph - N/A   Clear
11:00 PM 68.0 °F 24.8 °F 20% 30.06 in - North 6.9 mph - N/A   Clear
11:30 PM 68.0 °F 24.8 °F 20% 30.06 in - North 6.9 mph - N/A   Clear